Terminal Aerodrome Forecast
Issued by NWS Corpus Christi, TX

Home | Current Version | Previous Version | Text Only | Print | Product List | Glossary On
Versions: 1 2 3 4 5 6 7 8 9 10 11 12 13 14 15 16 17 18 19 20
000
FTUS44 KCRP 290500
TAFCRP
TAF
KCRP 290529Z 2906/3006 14006KT P6SM FEW007 SCT250
     FM290800 15005KT 3SM BR BKN007
     FM291000 17005KT 1/2SM FG OVC003
     FM291500 17014KT 2SM BR BKN007
     FM291700 17012KT P6SM SCT015
     FM292100 13010KT P6SM SCT020=

USA.gov is the U.S. government's official web portal to all federal, state and local government web resources and services.